TimeMST,TemperatureF,Dew PointF,Humidity,Sea Level PressureIn,VisibilityMPH,Wind Direction,Wind SpeedMPH,Gust SpeedMPH,PrecipitationIn,Events,Conditions,WindDirDegrees,DateUTC
12:53 AM,14.0,12.0,92,30.35,10.0,East,6.9,-,N/A,,Clear,90,2014-01-03 07:53:00
1:53 AM,16.0,12.0,84,30.33,10.0,ENE,3.5,-,N/A,,Clear,60,2014-01-03 08:53:00
2:53 AM,12.0,9.0,88,30.32,10.0,East,4.6,-,N/A,,Clear,90,2014-01-03 09:53:00
3:53 AM,12.0,9.0,88,30.33,10.0,Calm,Calm,-,N/A,,Clear,0,2014-01-03 10:53:00
4:53 AM,8.1,6.1,92,30.33,10.0,East,4.6,-,N/A,,Clear,90,2014-01-03 11:53:00
5:53 AM,10.0,7.0,87,30.33,10.0,ENE,4.6,-,N/A,,Clear,70,2014-01-03 12:53:00
6:53 AM,12.9,9.0,84,30.32,10.0,East,3.5,-,N/A,,Clear,90,2014-01-03 13:53:00
7:53 AM,8.1,6.1,92,30.35,10.0,East,3.5,-,N/A,,Clear,80,2014-01-03 14:53:00
8:53 AM,16.0,12.0,84,30.31,10.0,Calm,Calm,-,N/A,,Clear,0,2014-01-03 15:53:00
9:53 AM,21.0,14.0,74,30.29,10.0,ESE,4.6,-,N/A,,Clear,120,2014-01-03 16:53:00
10:53 AM,26.1,17.1,69,30.24,10.0,Calm,Calm,-,N/A,,Clear,0,2014-01-03 17:53:00
11:53 AM,23.0,18.0,81,30.22,10.0,WNW,5.8,-,N/A,,Clear,300,2014-01-03 18:53:00
12:53 PM,25.0,19.0,78,30.16,10.0,NW,3.5,-,N/A,,Clear,320,2014-01-03 19:53:00
1:53 PM,24.1,18.0,77,30.12,10.0,NW,8.1,-,N/A,,Clear,320,2014-01-03 20:53:00
2:53 PM,27.0,19.9,75,30.11,10.0,NNW,4.6,-,N/A,,Clear,340,2014-01-03 21:53:00
3:53 PM,27.0,18.0,69,30.10,10.0,Calm,Calm,-,N/A,,Clear,0,2014-01-03 22:53:00
4:53 PM,21.9,17.1,82,30.11,10.0,Calm,Calm,-,N/A,,Clear,0,2014-01-03 23:53:00
5:53 PM,21.9,16.0,78,30.11,10.0,North,3.5,-,N/A,,Clear,10,2014-01-04 00:53:00
6:53 PM,19.0,14.0,81,30.09,10.0,East,3.5,-,N/A,,Partly Cloudy,80,2014-01-04 01:53:00
7:53 PM,24.1,18.0,77,30.08,10.0,East,4.6,-,N/A,,Overcast,90,2014-01-04 02:53:00
8:53 PM,25.0,19.0,78,30.02,10.0,ENE,6.9,-,N/A,,Overcast,70,2014-01-04 03:53:00
9:53 PM,26.1,19.9,78,29.99,10.0,East,3.5,-,N/A,,Overcast,80,2014-01-04 04:53:00
10:53 PM,23.0,19.0,85,29.96,10.0,Calm,Calm,-,N/A,,Overcast,0,2014-01-04 05:53:00
11:53 PM,19.0,15.1,85,29.97,10.0,Calm,Calm,-,N/A,,Clear,0,2014-01-04 06:53:00